Wind_Speed
79 81 83 84 85 87 88 89 91 91 89 88 89 89 88 87 86 87 86 85 85 84 83 82 81 80 79 78 77 76 75 74 73 72 71 70 69 68
83 84 85 87 88 89 91 92 93 95 94 90 92 93 93 92 90 90 89 88 86 85 83 82 80 79 79 78 77 76 76 74 73 73 72 70 69 68
86 87 88 89 90 90 91 92 93 93 94 90 91 92 93 92 91 89 87 86 85 83 81 80 78 77 76 76 75 75 75 74 74 73 72 71 70 69
88 88 88 89 89 88 88 88 87 87 87 85 82 83 84 85 84 83 82 81 80 79 77 76 76 75 74 74 74 73 73 73 73 72 72 71 70 69
87 87 86 85 83 81 80 79 77 76 76 75 72 71 73 73 75 75 74 74 74 74 73 73 73 72 71 71 71 71 71 71 70 70 70 69 69 68
85 83 81 78 75 73 71 69 68 67 67 66 64 63 64 65 66 66 67 67 68 68 69 69 69 69 69 70 69 69 69 69 69 69 68 68 68 68
78 75 72 69 66 64 63 61 61 62 61 61 59 57 57 58 58 59 60 61 62 63 63 64 64 65 66 67 67 67 67 68 68 68 68 69 68 68
70 66 62 60 58 57 57 57 57 56 56 55 54 52 51 52 53 53 55 56 56 57 58 58 59 60 60 61 62 63 64 65 65 66 68 68 68 68
61 57 55 53 52 52 52 53 52 52 52 51 49 47 46 47 48 49 50 50 51 53 54 55 56 56 57 57 58 59 61 63 64 65 65 66 66 66
54 52 49 48 48 48 48 48 47 47 47 47 46 44 43 43 44 45 47 48 48 49 51 51 52 54 54 55 56 58 59 61 62 63 63 63 64 64
48 46 45 44 44 45 45 43 42 42 43 42 42 41 40 41 42 42 43 45 45 46 47 48 49 51 52 52 54 55 56 57 58 59 60 61 62 63
45 44 43 42 42 43 42 41 40 39 38 38 38 38 38 38 39 39 40 41 42 43 43 45 47 49 49 50 51 52 53 54 55 56 58 59 60 62
42 41 41 41 41 41 40 39 37 36 36 35 35 36 37 37 37 38 39 39 40 40 41 43 45 46 47 47 49 50 51 52 53 54 55 56 58 59
42 40 39 39 39 38 38 37 37 36 35 35 34 34 35 36 36 37 38 39 39 40 41 42 44 45 46 46 47 48 50 51 52 53 54 55 56 57
41 39 38 37 37 36 36 36 36 35 35 34 34 34 35 35 36 37 38 39 40 41 42 43 44 45 46 46 47 48 49 50 51 52 54 55 56 57
39 37 36 36 36 36 35 35 35 35 35 35 35 35 35 35 36 37 37 38 39 40 41 42 43 44 45 46 47 47 48 49 50 52 53 55 56 57
36 35 35 35 35 35 34 33 33 34 34 34 34 34 34 35 35 36 37 37 38 38 39 40 42 43 44 45 46 46 48 49 50 52 54 54 55 56
35 34 33 33 33 32 32 32 32 33 34 34 33 33 34 34 35 35 35 35 36 36 37 38 40 41 42 42 43 44 46 47 48 50 51 52 51 53
34 33 32 32 31 31 32 32 32 32 32 32 32 33 33 33 32 33 33 33 34 34 35 36 38 39 39 39 39 42 43 44 45 46 48 49 49 49
33 32 31 31 31 31 31 31 31 31 32 32 32 32 31 31 31 32 32 33 33 33 34 35 36 38 39 38 38 38 41 43 44 45 46 47 47 47
31 31 31 30 31 31 30 30 31 31 31 31 31 31 31 31 31 32 32 32 32 32 33 34 35 36 37 37 37 37 39 42 43 44 45 45 45 45
30 30 30 30 31 30 30 31 31 31 31 31 30 30 30 30 30 30 31 31 31 31 32 32 33 34 35 35 36 36 37 40 42 43 44 44 44 42
29 30 30 30 30 30 30 30 30 30 30 30 30 30 30 29 29 29 30 30 30 30 31 31 32 33 34 36 36 37 37 39 41 42 42 43 43 42
Wind_Direction
291 289 288 287 286 284 283 282 281 279 277 276 275 274 272 271 270 269 268 267 266 265 264 264 263 263 263 263 262 263 263 263 263 263 263 264 264 264
291 290 289 288 286 285 283 282 280 279 277 276 274 273 271 270 269 268 268 267 266 265 264 264 263 262 262 261 261 261 261 262 262 262 262 262 262 262
293 292 290 289 287 286 284 283 281 280 278 276 274 273 271 270 268 268 267 266 265 264 263 262 261 261 260 260 260 260 260 260 260 260 261 261 261 261
294 293 292 290 289 288 286 284 283 281 280 278 276 274 272 270 269 267 266 265 264 263 262 261 260 259 259 258 258 258 258 258 258 259 260 259 260 259
296 294 293 292 290 289 287 285 284 283 282 281 278 275 273 271 269 267 266 265 264 262 261 260 259 258 257 257 257 257 257 257 257 258 258 258 258 258
297 296 295 293 291 289 288 286 285 284 283 282 281 277 274 272 270 268 266 264 263 262 261 260 259 257 256 256 256 256 256 255 255 256 256 256 257 257
298 296 295 293 291 289 288 287 285 285 284 283 282 279 276 273 271 268 266 264 263 262 261 260 259 258 257 256 256 255 255 254 254 255 256 256 256 257
298 296 294 292 291 289 288 288 287 286 285 284 283 281 278 274 271 269 267 265 263 262 261 259 259 258 257 256 255 255 255 255 255 255 256 256 256 257
299 296 294 293 291 290 289 288 288 287 286 285 283 281 278 274 272 270 268 266 264 262 261 261 260 259 258 256 255 255 255 255 255 255 255 256 256 256
298 297 295 293 292 291 291 290 289 287 286 284 283 281 279 276 273 271 269 267 265 264 263 261 260 259 258 257 257 256 255 255 255 255 255 255 255 255
298 297 296 295 294 293 293 291 290 288 286 285 283 281 280 278 275 272 270 269 267 265 263 262 260 259 259 258 258 257 256 255 255 255 255 255 255 255
298 298 296 295 295 295 294 292 291 289 287 285 284 283 282 280 277 275 272 270 269 266 264 263 262 261 260 259 258 257 257 256 256 255 255 256 256 256
299 297 296 295 295 295 293 292 292 290 288 287 285 283 281 280 278 276 274 273 270 268 266 264 263 262 261 260 259 258 257 257 257 256 256 256 256 256
299 297 296 295 295 294 293 292 291 290 289 287 286 283 282 281 279 276 275 274 272 270 268 266 264 264 263 262 260 259 259 258 258 258 257 257 257 256
299 298 296 296 296 295 293 292 291 291 290 289 287 285 283 282 280 278 277 275 273 272 270 268 267 265 264 264 263 262 261 260 260 260 259 258 258 257
299 298 297 296 297 296 294 292 291 291 291 290 288 286 285 283 282 280 279 277 276 274 272 270 268 267 265 265 265 264 263 261 261 261 260 260 259 259
299 297 296 296 296 297 295 293 292 291 291 291 290 288 286 285 284 283 282 280 279 276 273 272 270 269 268 267 266 265 264 263 262 262 262 261 261 261
300 298 297 297 297 297 296 295 294 293 293 292 290 289 288 287 286 285 284 283 281 279 276 274 273 272 271 270 268 267 265 265 264 264 264 263 262 261
301 300 299 298 297 297 297 297 296 296 295 293 292 291 290 289 287 287 286 285 283 280 278 277 276 275 274 273 270 270 269 268 267 266 266 265 264 262
302 301 301 300 299 299 299 298 298 298 297 296 295 293 292 290 290 289 288 287 285 283 281 280 279 278 277 275 273 272 271 271 269 268 268 267 265 263
303 303 302 301 301 300 300 300 300 299 298 297 296 295 293 292 291 291 290 288 287 285 284 283 282 281 280 279 278 275 273 272 272 271 270 268 267 264
305 305 304 304 303 302 302 302 301 301 299 298 297 296 295 295 294 293 292 291 289 288 287 286 286 285 284 283 281 279 276 274 274 273 272 271 269 265
306 306 306 306 305 305 304 304 303 302 301 300 299 298 297 297 297 296 295 294 292 291 290 289 289 288 287 287 285 283 280 278 275 274 273 271 270 266
Height
5632 5625 5617 5611 5603 5596 5590 5584 5579 5578 5582 5581 5573 5569 5567 5564 5562 5558 5557 5558 5558 5560 5561 5563 5565 5567 5569 5571 5573 5576 5578 5580 5582 5584 5586 5589 5591 5594
5609 5601 5593 5585 5577 5570 5563 5557 5550 5545 5548 5556 5546 5540 5536 5536 5534 5531 5530 5530 5532 5533 5535 5538 5541 5543 5546 5548 5551 5553 5556 5558 5561 5563 5566 5568 5571 5574
5583 5575 5567 5558 5549 5542 5534 5527 5521 5514 5511 5522 5517 5510 5506 5505 5505 5503 5502 5503 5505 5507 5509 5512 5515 5518 5521 5525 5528 5531 5534 5537 5539 5542 5545 5548 5551 5555
5558 5548 5540 5530 5522 5513 5505 5498 5492 5486 5480 5484 5489 5482 5477 5476 5476 5475 5475 5476 5478 5481 5483 5486 5490 5494 5498 5501 5505 5508 5511 5515 5518 5521 5525 5528 5531 5534
5531 5521 5512 5503 5495 5486 5478 5472 5466 5461 5455 5454 5459 5457 5452 5450 5449 5451 5451 5451 5453 5456 5458 5461 5466 5470 5474 5479 5482 5486 5490 5494 5497 5500 5503 5507 5510 5514
5504 5495 5486 5477 5470 5462 5456 5450 5445 5440 5436 5433 5434 5434 5431 5428 5426 5428 5428 5429 5431 5433 5436 5439 5443 5447 5452 5457 5461 5465 5468 5471 5475 5479 5482 5486 5490 5493
5481 5471 5463 5455 5448 5442 5436 5432 5427 5422 5418 5415 5414 5413 5412 5409 5408 5407 5408 5409 5411 5413 5416 5419 5422 5427 5430 5435 5439 5442 5446 5450 5454 5458 5461 5465 5469 5473
5460 5451 5444 5437 5431 5425 5419 5415 5410 5405 5402 5398 5396 5395 5395 5392 5390 5390 5390 5391 5394 5397 5397 5400 5403 5407 5411 5415 5419 5422 5425 5429 5433 5437 5440 5444 5448 5452
5439 5433 5427 5421 5415 5410 5405 5400 5395 5391 5387 5383 5381 5380 5378 5377 5375 5375 5375 5375 5377 5378 5380 5384 5386 5389 5392 5395 5399 5402 5406 5409 5413 5417 5420 5424 5428 5431
5423 5417 5411 5406 5401 5395 5391 5386 5382 5378 5373 5369 5367 5366 5364 5363 5361 5360 5360 5360 5362 5363 5365 5368 5369 5371 5374 5377 5380 5383 5387 5390 5393 5397 5400 5404 5407 5411
5409 5403 5398 5393 5388 5382 5377 5373 5370 5366 5361 5357 5355 5353 5351 5349 5348 5347 5346 5346 5347 5349 5349 5351 5353 5355 5357 5360 5363 5365 5368 5371 5374 5378 5381 5384 5387 5390
5397 5391 5385 5380 5375 5370 5365 5361 5357 5354 5350 5347 5344 5342 5339 5337 5336 5334 5334 5333 5334 5335 5336 5337 5338 5339 5342 5344 5346 5348 5350 5353 5356 5359 5362 5365 5368 5370
5384 5379 5374 5369 5364 5359 5354 5350 5346 5342 5339 5337 5334 5331 5329 5326 5324 5323 5321 5321 5321 5322 5323 5323 5323 5324 5326 5328 5330 5331 5334 5336 5338 5341 5343 5346 5348 5351
5372 5367 5362 5357 5353 5348 5343 5339 5335 5332 5329 5326 5324 5321 5318 5316 5314 5312 5310 5309 5309 5309 5309 5309 5309 5310 5311 5312 5314 5316 5317 5319 5321 5323 5325 5327 5329 5332
5360 5355 5351 5346 5342 5338 5333 5329 5325 5321 5318 5316 5313 5310 5308 5305 5303 5301 5299 5297 5296 5295 5295 5295 5295 5295 5296 5297 5298 5299 5301 5302 5303 5305 5306 5308 5310 5312
5349 5345 5340 5336 5331 5327 5323 5319 5315 5312 5308 5305 5302 5299 5297 5294 5292 5289 5287 5285 5283 5282 5281 5281 5280 5280 5281 5281 5282 5283 5284 5285 5286 5286 5287 5289 5291 5293
5339 5335 5331 5326 5322 5317 5313 5309 5305 5302 5298 5295 5292 5289 5286 5283 5280 5277 5275 5273 5271 5269 5268 5267 5266 5266 5266 5266 5267 5267 5267 5268 5268 5268 5269 5271 5273 5275
5329 5325 5321 5316 5312 5308 5304 5300 5296 5292 5288 5285 5281 5278 5275 5272 5269 5266 5263 5261 5258 5256 5255 5254 5252 5251 5251 5252 5252 5251 5250 5251 5251 5251 5251 5253 5255 5256
5319 5315 5311 5307 5303 5299 5295 5291 5287 5282 5278 5274 5271 5268 5264 5261 5258 5255 5252 5249 5247 5245 5243 5241 5239 5238 5237 5238 5237 5235 5235 5234 5233 5234 5234 5234 5236 5238
5310 5305 5301 5297 5293 5289 5285 5281 5277 5273 5269 5265 5261 5257 5254 5250 5247 5244 5241 5238 5236 5233 5231 5229 5227 5225 5223 5223 5223 5222 5219 5218 5217 5217 5217 5217 5218 5219
5301 5296 5292 5288 5284 5280 5276 5272 5268 5263 5259 5255 5251 5247 5244 5240 5237 5234 5230 5227 5225 5222 5220 5217 5214 5212 5210 5208 5208 5208 5205 5202 5201 5200 5200 5200 5201 5202
5292 5288 5284 5279 5275 5271 5267 5263 5258 5254 5250 5246 5242 5238 5234 5231 5227 5224 5220 5217 5214 5211 5209 5206 5203 5200 5197 5195 5194 5193 5191 5189 5186 5184 5183 5183 5183 5185
5284 5280 5275 5271 5266 5262 5258 5253 5249 5245 5241 5237 5233 5229 5225 5221 5218 5214 5211 5207 5204 5201 5198 5195 5192 5189 5185 5183 5180 5178 5176 5173 5171 5169 5169 5167 5166 5167